Hourly Weather Staicele

Today, 30 September, Wednesday

Time Temperature Precipitation Wind Pressure Humidity
00:00 +11°C° 0 mm 1 mps 760 mmHg 96%
01:00 +11°C° 0 mm 1 mps 760 mmHg 96%
02:00 +11°C° 0 mm 1 mps 760 mmHg 98%
03:00 +11°C° 0 mm 1 mps 760 mmHg 97%
04:00 +11°C° 0 mm 1 mps 760 mmHg 97%
05:00 +11°C° 0 mm 1 mps 760 mmHg 97%
06:00 +10°C° 0 mm 2 mps 760 mmHg 95%
07:00 +10°C° 0 mm 2 mps 760 mmHg 94%
08:00 +12°C° 0 mm 2 mps 760 mmHg 89%
09:00 +13°C° 0 mm 2 mps 760 mmHg 84%
10:00 +14°C° 0 mm 3 mps 760 mmHg 78%
11:00 +16°C° 0 mm 3 mps 760 mmHg 72%
12:00 +17°C° 0 mm 3 mps 760 mmHg 70%
13:00 +17°C° 0 mm 3 mps 759 mmHg 68%
14:00 +18°C° 0 mm 3 mps 759 mmHg 65%
15:00 +17°C° 0 mm 3 mps 759 mmHg 70%
16:00 +17°C° 0 mm 3 mps 759 mmHg 75%
17:00 +16°C° 0 mm 3 mps 759 mmHg 79%
18:00 +14°C° 0 mm 3 mps 759 mmHg 83%
19:00 +13°C° 0 mm 3 mps 759 mmHg 87%
20:00 +12°C° 0 mm 3 mps 759 mmHg 91%
21:00 +12°C° 0 mm 3 mps 759 mmHg 91%
22:00 +11°C° 0 mm 3 mps 759 mmHg 91%
23:00 +11°C° 0 mm 3 mps 759 mmHg 91%

Tomorrow, 1 October, Thursday

Time Temperature Precipitation Wind Pressure Humidity
00:00 +12°C° 0 mm 2 mps 759 mmHg 92%
01:00 +10°C° 0 mm 2 mps 759 mmHg 92%
02:00 +10°C° 0 mm 2 mps 759 mmHg 93%
03:00 +10°C° 0 mm 3 mps 759 mmHg 92%
04:00 +10°C° 0 mm 3 mps 758 mmHg 91%
05:00 +10°C° 0 mm 3 mps 758 mmHg 90%
06:00 +10°C° 0 mm 3 mps 758 mmHg 85%
07:00 +10°C° 0 mm 4 mps 758 mmHg 80%
08:00 +10°C° 0 mm 4 mps 758 mmHg 75%
09:00 +11°C° 0 mm 4 mps 758 mmHg 70%
10:00 +12°C° 0 mm 4 mps 758 mmHg 66%
11:00 +14°C° 0 mm 4 mps 758 mmHg 61%
12:00 +15°C° 0 mm 4 mps 758 mmHg 59%
13:00 +17°C° 0 mm 4 mps 757 mmHg 56%
14:00 +18°C° 0 mm 4 mps 757 mmHg 53%
15:00 +17°C° 0 mm 4 mps 757 mmHg 57%
16:00 +15°C° 0 mm 4 mps 757 mmHg 60%
17:00 +15°C° 0 mm 4 mps 757 mmHg 64%
18:00 +14°C° 0 mm 4 mps 758 mmHg 66%
19:00 +13°C° 0 mm 4 mps 758 mmHg 69%
20:00 +12°C° 0 mm 3 mps 758 mmHg 72%
21:00 +12°C° 0 mm 3 mps 758 mmHg 74%
22:00 +11°C° 0 mm 3 mps 758 mmHg 76%
23:00 +11°C° 0 mm 3 mps 758 mmHg 77%

Day after tomorrow, 2 October, Friday

Time Temperature Precipitation Wind Pressure Humidity
00:00 +10°C° 0 mm 3 mps 759 mmHg 78%
01:00 +10°C° 0 mm 4 mps 759 mmHg 79%
02:00 +8°C° 0 mm 4 mps 759 mmHg 80%
03:00 +8°C° 0 mm 4 mps 759 mmHg 82%
04:00 +8°C° 0 mm 4 mps 759 mmHg 83%
05:00 +7°C° 0 mm 4 mps 759 mmHg 84%
06:00 +8°C° 0 mm 4 mps 759 mmHg 81%
07:00 +8°C° 0 mm 4 mps 759 mmHg 79%
08:00 +8°C° 0 mm 4 mps 759 mmHg 76%
09:00 +11°C° 0 mm 4 mps 759 mmHg 71%
10:00 +12°C° 0 mm 4 mps 759 mmHg 65%
11:00 +14°C° 0 mm 4 mps 759 mmHg 60%
12:00 +15°C° 0 mm 4 mps 759 mmHg 58%
13:00 +17°C° 0 mm 4 mps 759 mmHg 56%
14:00 +17°C° 0 mm 4 mps 759 mmHg 54%
15:00 +17°C° 0 mm 4 mps 759 mmHg 58%
16:00 +15°C° 0 mm 4 mps 759 mmHg 62%
17:00 +16°C° 0 mm 3 mps 759 mmHg 66%
18:00 +14°C° 0 mm 4 mps 759 mmHg 68%
19:00 +13°C° 0 mm 4 mps 760 mmHg 70%
20:00 +12°C° 0 mm 4 mps 760 mmHg 71%
21:00 +12°C° 0 mm 4 mps 760 mmHg 72%
22:00 +12°C° 0 mm 4 mps 760 mmHg 72%
23:00 +12°C° 0 mm 4 mps 760 mmHg 72%

3 October, Saturday

Time Temperature Precipitation Wind Pressure Humidity
00:00 +12°C° 0 mm 4 mps 760 mmHg 72%
01:00 +12°C° 0 mm 4 mps 760 mmHg 72%
02:00 +12°C° 0 mm 4 mps 760 mmHg 71%
03:00 +11°C° 0 mm 4 mps 760 mmHg 72%
04:00 +11°C° 0 mm 4 mps 760 mmHg 73%
05:00 +11°C° 0 mm 4 mps 760 mmHg 74%
06:00 +11°C° 0 mm 4 mps 760 mmHg 75%
07:00 +11°C° 0 mm 4 mps 760 mmHg 75%
08:00 +11°C° 0 mm 4 mps 759 mmHg 76%
09:00 +13°C° 0 mm 4 mps 759 mmHg 72%
10:00 +14°C° 0 mm 4 mps 759 mmHg 68%
11:00 +15°C° 0 mm 4 mps 759 mmHg 63%
12:00 +16°C° 0 mm 5 mps 759 mmHg 62%
13:00 +17°C° 0 mm 5 mps 759 mmHg 60%
14:00 +19°C° 0 mm 5 mps 759 mmHg 59%
15:00 +17°C° 0 mm 5 mps 758 mmHg 62%
16:00 +16°C° 0 mm 5 mps 758 mmHg 66%
17:00 +15°C° 0 mm 5 mps 758 mmHg 70%
18:00 +14°C° 0 mm 4 mps 759 mmHg 73%
19:00 +13°C° 0 mm 4 mps 759 mmHg 75%
20:00 +13°C° 0 mm 4 mps 759 mmHg 78%
21:00 +12°C° 0 mm 4 mps 759 mmHg 82%
22:00 +12°C° 0 mm 4 mps 759 mmHg 85%
23:00 +11°C° 0 mm 4 mps 759 mmHg 89%

4 October, Sunday

Time Temperature Precipitation Wind Pressure Humidity
00:00 +11°C° 0 mm 4 mps 759 mmHg 89%
01:00 +10°C° 0 mm 5 mps 759 mmHg 90%
02:00 +10°C° 0 mm 5 mps 759 mmHg 90%
03:00 +10°C° 0 mm 5 mps 759 mmHg 90%
04:00 +10°C° 0 mm 5 mps 758 mmHg 89%
05:00 +10°C° 0 mm 6 mps 758 mmHg 89%
06:00 +10°C° 0 mm 6 mps 758 mmHg 86%
07:00 +10°C° 0 mm 6 mps 758 mmHg 84%
08:00 +11°C° 0 mm 7 mps 757 mmHg 81%
09:00 +12°C° 0 mm 7 mps 757 mmHg 78%
10:00 +14°C° 0 mm 7 mps 757 mmHg 74%
11:00 +15°C° 0 mm 7 mps 757 mmHg 70%
12:00 +15°C° 0 mm 7 mps 757 mmHg 70%
13:00 +15°C° 0 mm 7 mps 757 mmHg 69%
14:00 +16°C° 0 mm 7 mps 757 mmHg 68%
15:00 +15°C° 0 mm 7 mps 757 mmHg 69%
16:00 +15°C° 0 mm 7 mps 756 mmHg 71%
17:00 +15°C° 0 mm 7 mps 756 mmHg 72%
18:00 +15°C° 0 mm 6 mps 756 mmHg 72%
19:00 +15°C° 0 mm 6 mps 756 mmHg 73%
20:00 +15°C° 0 mm 6 mps 756 mmHg 73%
21:00 +14°C° 0.7 mm 6 mps 756 mmHg 78%
22:00 +14°C° 0.7 mm 6 mps 755 mmHg 83%
23:00 +13°C° 0.7 mm 6 mps 755 mmHg 88%

5 October, Monday

Time Temperature Precipitation Wind Pressure Humidity
00:00 +13°C° 0.3 mm 6 mps 755 mmHg 89%
01:00 +13°C° 0.3 mm 6 mps 755 mmHg 90%
02:00 +13°C° 0.3 mm 5 mps 754 mmHg 91%
03:00 +13°C° 0.1 mm 5 mps 754 mmHg 91%
04:00 +13°C° 0.1 mm 5 mps 754 mmHg 91%
05:00 +13°C° 0.1 mm 5 mps 754 mmHg 91%
06:00 +13°C° 0 mm 5 mps 754 mmHg 91%
07:00 +13°C° 0 mm 5 mps 754 mmHg 91%
08:00 +13°C° 0 mm 5 mps 754 mmHg 91%
09:00 +13°C° 0 mm 4 mps 754 mmHg 89%
10:00 +14°C° 0 mm 4 mps 754 mmHg 87%
11:00 +15°C° 0 mm 4 mps 754 mmHg 85%
12:00 +15°C° 0 mm 4 mps 753 mmHg 85%
13:00 +15°C° 0 mm 4 mps 753 mmHg 84%
14:00 +17°C° 0 mm 4 mps 753 mmHg 84%
15:00 +15°C° 0 mm 4 mps 752 mmHg 85%
16:00 +15°C° 0 mm 4 mps 752 mmHg 86%
17:00 +15°C° 0 mm 4 mps 752 mmHg 87%
18:00 +15°C° 0 mm 4 mps 752 mmHg 87%
19:00 +14°C° 0 mm 4 mps 751 mmHg 87%
20:00 +14°C° 0 mm 4 mps 751 mmHg 87%
21:00 +14°C° 0 mm 4 mps 751 mmHg 87%
22:00 +14°C° 0 mm 4 mps 750 mmHg 87%
23:00 +14°C° 0 mm 4 mps 750 mmHg 87%
Show more

We Need Your Consent

Meteoprog and our Service Providers may store and access personal data such as cookies, device identifiers or other similar technologies on your device and process such data to personalise content and ads, as well as provide social media features and to analyse the traffic.

  • Store and/or access information on your device

    Cookies, device identifiers or other information can be stored or accessed on your device for the purposes indicated above.

  • Personalised ads and content, ad and content measurement, audience insights, and products development

    Ads and content can be personalised based on a profile. More data can be added to better personalise ads and content. Ad and content performance can be measured. Insights about the audience who saw the ads and content can be derived. Such data can be used to develop or improve user’s experience, systems and software.

By clicking ‘I Agree’ you will allow the use of indicated cookies, device identifiers, web beacons or other similar technologies. Your settings can be changed in the browser on your device.

For certain purposes, legitimate interests may be relied on, rather than consent. You can read more about this in our Privacy and Cookie Policy.